Location: Sungai Dangang
(2.7500°N, 113.8333°E)
Time: 21:17:48
(UTC+00:00)

Cosmos 192 - Pass Details

Date: 16 May 2021
Orbit: 702 x 712 km, 74.0° (Epoch: 15 June)

Event Time Altitude Azimuth Distance (km) Brightness Sun altitude
Exits shadow 21:07:35 11° 196° (SSW) 2,088 6.4 -16.3°
Maximum altitude 21:12:16 78° 282° (WNW) 729 4.2 -15.2°
Drops below altitude 10° 21:17:12 10° 9° (N) 2,179 7.2 -14.1°
Sets 21:19:31 0° 10° (N) 3,096 8.1 -13.6°
